Total_Precipitation_Accumulation
0.32 0.43 0.96 1.17 1.23 1.14 1.13 1.08 1.09 1.06 1.03 1.10 1.18 1.22 1.14 1.07 1.05 1.04 1.09 1.13 1.22 1.41 1.53 1.50 1.38 1.30 1.21 1.11 0.93 0.71 0.60 0.53 0.42 0.36 0.36 0.47 0.56 0.58 0.50 0.46 0.47 0.58 0.83
0.32 0.51 0.97 1.14 1.22 1.23 1.19 1.03 0.92 0.90 0.92 1.03 1.15 1.19 1.23 1.20 1.16 1.09 1.10 1.24 1.36 1.50 1.51 1.47 1.26 1.09 1.01 0.87 0.70 0.53 0.45 0.35 0.27 0.20 0.15 0.23 0.40 0.56 0.52 0.45 0.48 0.67 0.81
0.33 0.57 0.89 1.12 1.18 1.24 1.15 0.96 0.84 0.84 0.91 1.00 1.08 1.12 1.23 1.25 1.16 1.16 1.17 1.27 1.37 1.54 1.45 1.30 1.13 0.93 0.81 0.64 0.53 0.44 0.36 0.30 0.24 0.18 0.18 0.26 0.43 0.66 0.64 0.57 0.64 0.79 0.84
0.42 0.65 0.86 1.14 1.18 1.22 1.16 0.98 0.89 0.86 0.95 1.05 1.09 1.15 1.24 1.25 1.21 1.28 1.23 1.21 1.31 1.43 1.31 1.14 1.05 0.84 0.66 0.56 0.51 0.45 0.39 0.34 0.25 0.21 0.26 0.32 0.44 0.82 0.84 0.80 0.86 0.91 0.88
0.61 0.79 1.04 1.25 1.25 1.26 1.20 1.10 1.04 1.01 1.05 1.13 1.18 1.26 1.29 1.34 1.33 1.37 1.26 1.14 1.14 1.13 1.07 0.95 0.85 0.73 0.59 0.52 0.50 0.47 0.39 0.32 0.24 0.22 0.26 0.34 0.51 1.01 0.98 0.89 0.85 0.80 0.77
0.81 0.97 1.27 1.50 1.46 1.40 1.32 1.23 1.23 1.19 1.19 1.19 1.23 1.35 1.39 1.45 1.43 1.34 1.16 1.01 0.92 0.91 0.98 0.93 0.78 0.68 0.57 0.51 0.47 0.44 0.35 0.27 0.22 0.25 0.29 0.37 0.62 1.10 1.00 0.88 0.81 0.79 0.77
0.94 1.13 1.46 1.72 1.72 1.59 1.49 1.42 1.42 1.38 1.39 1.36 1.32 1.39 1.47 1.50 1.45 1.32 1.07 0.89 0.76 0.80 0.91 0.94 0.90 0.75 0.64 0.54 0.49 0.42 0.32 0.23 0.22 0.26 0.32 0.44 0.74 1.12 1.04 0.97 0.89 0.86 0.87
1.09 1.29 1.60 1.90 1.83 1.72 1.73 1.70 1.68 1.65 1.59 1.53 1.50 1.60 1.60 1.53 1.41 1.24 1.06 0.90 0.78 0.77 0.87 0.89 0.92 0.83 0.68 0.60 0.52 0.43 0.27 0.20 0.21 0.24 0.32 0.49 0.78 1.07 1.07 0.98 0.95 0.90 0.88
1.39 1.59 1.82 1.94 1.85 1.75 1.72 1.75 1.80 1.83 1.84 1.73 1.62 1.63 1.60 1.52 1.38 1.21 1.00 0.94 0.89 0.84 0.87 0.89 0.83 0.83 0.74 0.62 0.53 0.42 0.27 0.19 0.20 0.23 0.31 0.52 0.84 1.11 1.14 1.05 0.97 0.96 0.92
1.89 1.96 2.09 2.20 2.11 1.91 1.74 1.80 1.85 1.85 1.82 1.80 1.66 1.43 1.35 1.30 1.24 1.18 0.92 0.88 0.89 0.87 0.81 0.83 0.84 0.83 0.72 0.58 0.50 0.43 0.33 0.27 0.25 0.25 0.35 0.53 0.86 1.12 1.12 1.10 0.99 0.93 0.95
2.40 2.43 2.39 2.45 2.42 2.34 2.15 2.00 2.01 1.90 1.78 1.75 1.63 1.37 1.26 1.34 1.25 1.04 0.78 0.74 0.77 0.80 0.80 0.79 0.77 0.77 0.60 0.51 0.46 0.43 0.42 0.36 0.32 0.33 0.37 0.55 0.90 1.10 1.10 1.08 1.02 1.00 0.95
2.59 2.65 2.62 2.64 2.64 2.66 2.37 2.22 2.22 2.03 1.82 1.66 1.51 1.44 1.34 1.32 1.30 1.06 0.89 0.76 0.79 0.75 0.78 0.87 0.86 0.73 0.57 0.47 0.43 0.43 0.46 0.47 0.46 0.41 0.39 0.56 0.90 1.09 1.14 1.12 0.98 0.95 0.97
2.90 2.91 2.85 2.82 2.85 2.87 2.73 2.36 2.24 2.08 2.00 1.86 1.61 1.54 1.48 1.48 1.43 1.26 1.12 0.99 0.95 0.82 0.79 0.85 0.88 0.71 0.57 0.52 0.46 0.40 0.40 0.45 0.47 0.45 0.40 0.51 0.82 1.09 1.17 1.15 1.01 0.92 0.94
2.96 3.10 3.00 2.95 2.93 2.96 2.92 2.66 2.37 2.16 2.00 1.89 1.71 1.59 1.61 1.57 1.46 1.31 1.16 1.09 1.02 0.90 0.84 0.82 0.77 0.66 0.56 0.52 0.48 0.44 0.44 0.46 0.45 0.48 0.43 0.45 0.67 0.96 1.13 1.17 1.11 1.03 1.02
2.82 3.14 3.20 3.14 3.03 2.92 2.95 2.87 2.57 2.28 2.00 1.92 1.92 1.76 1.59 1.53 1.41 1.36 1.23 1.20 1.12 0.99 0.93 0.87 0.81 0.76 0.68 0.60 0.52 0.47 0.46 0.46 0.44 0.47 0.44 0.40 0.48 0.74 1.05 1.20 1.21 1.26 1.31
2.69 2.99 3.22 3.37 3.31 3.11 2.88 2.77 2.65 2.46 2.29 2.22 2.09 1.94 1.82 1.68 1.58 1.44 1.31 1.26 1.21 1.07 0.96 0.93 0.87 0.85 0.80 0.73 0.64 0.55 0.48 0.47 0.44 0.45 0.46 0.43 0.44 0.55 0.80 1.07 1.21 1.37 1.54
2.81 2.95 3.17 3.43 3.61 3.49 3.21 3.00 2.85 2.66 2.51 2.41 2.31 2.26 2.15 1.95 1.78 1.69 1.49 1.34 1.28 1.26 1.21 1.14 1.09 0.97 0.87 0.79 0.74 0.68 0.60 0.56 0.50 0.45 0.45 0.45 0.44 0.44 0.57 0.85 1.09 1.29 1.53
3.15 3.18 3.35 3.40 3.62 3.71 3.60 3.34 3.06 2.87 2.70 2.50 2.32 2.31 2.28 2.14 1.99 1.91 1.77 1.58 1.49 1.49 1.46 1.33 1.19 1.12 0.96 0.84 0.77 0.73 0.67 0.62 0.55 0.50 0.46 0.42 0.40 0.38 0.44 0.62 0.83 1.06 1.34
3.27 3.43 3.63 3.62 3.53 3.69 3.85 3.75 3.36 3.10 2.89 2.72 2.49 2.33 2.37 2.35 2.20 2.03 1.84 1.73 1.75 1.71 1.59 1.49 1.32 1.28 1.22 1.02 0.87 0.80 0.75 0.70 0.63 0.58 0.52 0.47 0.43 0.38 0.39 0.46 0.59 0.70 0.93
3.31 3.43 3.58 3.72 3.79 3.90 4.06 4.15 3.90 3.52 3.20 3.00 2.81 2.58 2.47 2.56 2.59 2.39 2.03 1.89 1.92 1.93 1.85 1.71 1.59 1.47 1.39 1.37 1.21 0.96 0.82 0.77 0.73 0.66 0.60 0.54 0.49 0.43 0.40 0.41 0.47 0.52 0.63
3.18 3.29 3.32 3.44 3.66 3.84 3.97 3.99 3.85 3.51 3.34 3.18 2.96 2.82 2.75 2.64 2.67 2.78 2.49 2.21 2.15 2.11 2.08 2.04 1.99 1.88 1.67 1.61 1.60 1.32 1.03 0.87 0.81 0.72 0.68 0.66 0.59 0.54 0.51 0.48 0.50 0.52 0.57
2.73 3.08 3.14 3.23 3.34 3.44 3.51 3.73 3.86 3.74 3.47 3.37 3.29 3.07 2.87 2.78 2.73 2.79 2.86 2.65 2.35 2.28 2.29 2.29 2.20 2.05 1.96 1.90 1.83 1.74 1.53 1.31 1.00 0.82 0.76 0.72 0.68 0.66 0.64 0.62 0.61 0.62 0.63
2.43 2.86 3.01 3.13 3.27 3.25 3.45 3.91 4.17 4.20 3.90 3.61 3.40 3.30 3.13 2.92 2.87 2.80 2.77 2.81 2.69 2.51 2.41 2.41 2.47 2.45 2.31 2.19 2.07 2.11 1.84 1.52 1.21 0.99 0.89 0.84 0.83 0.80 0.76 0.76 0.76 0.75 0.75
2.16 2.50 2.73 3.02 3.28 3.40 3.50 3.73 3.82 3.67 3.49 3.19 3.12 3.13 3.18 3.14 2.95 2.87 2.85 2.84 2.81 2.71 2.55 2.51 2.58 2.63 2.65 2.56 2.40 2.20 1.96 1.63 1.49 1.25 1.02 0.99 1.04 1.03 0.98 0.93 0.89 0.87 0.85
1.97 2.26 2.45 2.63 2.92 3.20 3.36 3.52 3.68 3.54 3.28 3.18 3.18 3.19 3.16 3.19 3.11 2.99 2.91 2.90 2.89 2.83 2.75 2.69 2.68 2.69 2.70 2.67 2.60 2.42 2.24 1.91 1.63 1.52 1.29 1.14 1.19 1.16 1.14 1.10 1.03 0.98 0.96
1.74 2.08 2.26 2.42 2.59 2.87 3.09 3.28 3.50 3.41 3.17 2.94 2.94 3.01 2.98 2.98 2.94 2.88 2.91 2.85 2.81 2.77 2.68 2.65 2.66 2.65 2.66 2.59 2.50 2.37 2.28 2.12 1.86 1.76 1.58 1.35 1.34 1.32 1.33 1.29 1.21 1.13 1.08